GW6325 Weather Reports


time (UTC)temp
C
wind
direction
speed
KPH
gust
KPH
rain 1hr
cm
rain 24hr
cm
rain mn
cm
humidity
%
barometer
mb
20260508213839 25 175 3.2 4.8 0.00 0.00 0.00 25 1016.1
20260508213337 25 197 1.6 3.2 0.00 0.00 0.00 22 1016.3
20260508212832 25 80 3.2 6.4 0.00 0.00 0.00 24 1016.3
20260508212329 25 159 3.2 6.4 0.00 0.00 0.00 24 1016.6
20260508211825 25 94 1.6 9.7 0.00 0.00 0.00 23 1016.7
20260508211320 25 266 4.8 6.4 0.00 0.00 0.00 24 1016.5
20260508210819 24 193 3.2 6.4 0.00 0.00 0.00 25 1016.9
20260508210315 25 280 4.8 6.4 0.00 0.00 0.00 23 1016.7
20260508205812 25 232 6.4 9.7 0.00 0.00 0.00 22 1016.9
20260508205308 25 210 3.2 4.8 0.00 0.00 0.00 24 1016.8
20260508204805 24 208 0.0 4.8 0.00 0.00 0.00 24 1016.9
20260508204301 24 171 1.6 11.3 0.00 0.00 0.00 24 1016.9
20260508203758 24 161 1.6 6.4 0.00 0.00 0.00 22 1016.9
20260508203254 25 189 6.4 11.3 0.00 0.00 0.00 24 1016.8
20260508202749 25 169 1.6 6.4 0.00 0.00 0.00 24 1016.9
20260508202247 25 190 3.2 6.4 0.00 0.00 0.00 24 1016.9
20260508201744 25 166 3.2 4.8 0.00 0.00 0.00 24 1017.0
20260508201241 24 168 3.2 4.8 0.00 0.00 0.00 25 1017.2
20260508200737 24 161 0.0 4.8 0.00 0.00 0.00 24 1017.0
20260508200234 23 147 3.2 6.4 0.00 0.00 0.00 25 1017.4
20260508195730 23 270 11.3 20.9 0.00 0.00 0.00 24 1017.0
20260508195226 24 238 6.4 9.7 0.00 0.00 0.00 23 1017.0
20260508194723 23 226 4.8 6.4 0.00 0.00 0.00 25 1017.2
20260508194220 23 171 6.4 6.4 0.00 0.00 0.00 24 1017.2
20260508193717 23 208 6.4 11.3 0.00 0.00 0.00 23 1017.4
20260508193214 23 157 3.2 11.3 0.00 0.00 0.00 23 1017.5
20260508192710 23 185 1.6 11.3 0.00 0.00 0.00 24 1017.2
20260508192208 23 159 1.6 6.4 0.00 0.00 0.00 24 1017.3
20260508191705 23 169 3.2 12.9 0.00 0.00 0.00 22 1017.4
20260508191201 23 278 8.0 12.9 0.00 0.00 0.00 23 1017.3
20260508190659 23 193 9.7 12.9 0.00 0.00 0.00 24 1017.3
20260508190155 23 158 4.8 9.7 0.00 0.00 0.00 30 1017.5
20260508185652 23 82 3.2 6.4 0.00 0.00 0.00 30 1017.3
20260508185149 23 158 4.8 6.4 0.00 0.00 0.00 29 1017.4
20260508184646 23 124 3.2 4.8 0.00 0.00 0.00 30 1017.4
20260508184144 22 177 1.6 3.2 0.00 0.00 0.00 29 1017.6
20260508183640 23 129 3.2 4.8 0.00 0.00 0.00 27 1017.6
20260508183136 23 142 4.8 4.8 0.00 0.00 0.00 30 1017.6
20260508182632 23 146 0.0 3.2 0.00 0.00 0.00 33 1017.6
20260508182129 23 177 1.6 9.7 0.00 0.00 0.00 28 1017.8
20260508181624 22 186 1.6 4.8 0.00 0.00 0.00 28 1018.0
20260508181122 22 110 3.2 11.3 0.00 0.00 0.00 27 1017.8
20260508180619 23 86 3.2 11.3 0.00 0.00 0.00 29 1017.8
20260508180115 22 121 4.8 9.7 0.00 0.00 0.00 28 1017.8
20260508175612 22 121 3.2 6.4 0.00 0.00 0.00 28 1017.8
20260508175109 22 86 1.6 3.2 0.00 0.00 0.00 28 1018.1
20260508174607 22 80 3.2 3.2 0.00 0.00 0.00 27 1018.1
20260508174103 22 237 4.8 6.4 0.00 0.00 0.00 25 1018.1
20260508173600 23 92 3.2 3.2 0.00 0.00 0.00 24 1018.2
20260508173056 23 153 0.0 3.2 0.00 0.00 0.00 25 1017.8
20260508172554 23 191 3.2 4.8 0.00 0.00 0.00 26 1018.1
20260508172050 22 163 0.0 3.2 0.00 0.00 0.00 28 1017.8
20260508171547 22 153 1.6 4.8 0.00 0.00 0.00 29 1017.8
20260508171043 21 106 4.8 6.4 0.00 0.00 0.00 30 1018.1
20260508170540 21 74 6.4 12.9 0.00 0.00 0.00 30 1018.2
20260508170038 22 130 3.2 4.8 0.00 0.00 0.00 30 1018.1
20260508165535 22 110 1.6 6.4 0.00 0.00 0.00 28 1018.1
20260508165032 21 164 0.0 1.6 0.00 0.00 0.00 29 1018.2
20260508164528 21 96 3.2 3.2 0.00 0.00 0.00 31 1018.0
20260508164025 21 82 6.4 6.4 0.00 0.00 0.00 31 1018.1
20260508163522 21 87 4.8 4.8 0.00 0.00 0.00 31 1018.0
20260508163019 21 98 1.6 3.2 0.00 0.00 0.00 29 1018.2
20260508162516 20 125 0.0 1.6 0.00 0.00 0.00 33 1017.8
20260508162013 21 85 6.4 6.4 0.00 0.00 0.00 32 1018.0
20260508161510 21 88 3.2 4.8 0.00 0.00 0.00 29 1018.0
20260508161007 20 140 0.0 1.6 0.00 0.00 0.00 30 1018.1
20260508160506 20 124 1.6 4.8 0.00 0.00 0.00 31 1018.1
20260508160002 20 111 3.2 3.2 0.00 0.00 0.00 30 1018.1
20260508155459 20 151 0.0 1.6 0.00 0.00 0.00 33 1018.1
20260508154955 20 131 1.6 1.6 0.00 0.00 0.00 30 1018.1
20260508154453 19 151 0.0 1.6 0.00 0.00 0.00 32 1017.7
20260508153950 19 104 3.2 3.2 0.00 0.00 0.00 33 1018.1
20260508153447 19 133 0.0 3.2 0.00 0.00 0.00 35 1018.0
20260508152943 18 139 1.6 3.2 0.00 0.00 0.00 38 1018.0
20260508152439 17 212 1.6 1.6 0.00 0.00 0.00 42 1018.2
20260508151936 17 108 1.6 3.2 0.00 0.00 0.00 42 1018.0
20260508151433 18 50 3.2 4.8 0.00 0.00 0.00 42 1018.0
20260508150929 18 160 0.0 1.6 0.00 0.00 0.00 40 1018.0
20260508150426 19 209 1.6 3.2 0.00 0.00 0.00 39 1017.8
20260508145922 18 151 0.0 1.6 0.00 0.00 0.00 41 1018.0
20260508145419 17 130 0.0 1.6 0.00 0.00 0.00 42 1018.0
20260508144915 16 117 1.6 3.2 0.00 0.00 0.00 43 1017.8
20260508144413 16 160 0.0 1.6 0.00 0.00 0.00 46 1017.7
20260508143910 15 157 1.6 3.2 0.00 0.00 0.00 48 1017.8
20260508143408 15 166 0.0 1.6 0.00 0.00 0.00 52 1017.6
20260508142904 15 152 1.6 4.8 0.00 0.00 0.00 52 1017.6
20260508142401 15 139 0.0 6.4 0.00 0.00 0.00 54 1017.6
20260508141857 15 146 0.0 1.6 0.00 0.00 0.00 48 1017.3
20260508141354 16 173 1.6 1.6 0.00 0.00 0.00 46 1017.4
20260508140852 16 154 0.0 1.6 0.00 0.00 0.00 45 1017.3
20260508140349 15 161 0.0 0.0 0.00 0.00 0.00 48 1017.2
20260508135844 14 177 0.0 1.6 0.00 0.00 0.00 47 1017.2
20260508135341 13 168 0.0 0.0 0.00 0.00 0.00 53 1017.3
20260508134837 13 170 0.0 1.6 0.00 0.00 0.00 52 1017.2
20260508134334 12 164 0.0 0.0 0.00 0.00 0.00 53 1017.2
20260508133831 11 169 0.0 0.0 0.00 0.00 0.00 57 1017.0
20260508133329 10 170 0.0 1.6 0.00 0.00 0.00 59 1017.3
20260508132825 10 172 0.0 1.6 0.00 0.00 0.00 62 1017.0
20260508132323 10 153 0.0 0.0 0.00 0.00 0.00 62 1017.2
20260508131820 10 165 0.0 0.0 0.00 0.00 0.00 62 1016.8
20260508131315 9 170 0.0 1.6 0.00 0.00 0.00 63 1016.9
20260508130812 9 173 0.0 1.6 0.00 0.00 0.00 62 1016.7
20260508130309 8 156 0.0 0.0 0.00 0.00 0.00 62 1016.7
20260508125805 9 170 0.0 0.0 0.00 0.00 0.00 61 1016.6
20260508125305 9 157 0.0 1.6 0.00 0.00 0.00 59 1016.6
20260508124800 10 162 0.0 0.0 0.00 0.00 0.00 56 1016.5
20260508124256 10 160 0.0 0.0 0.00 0.00 0.00 56 1016.5
20260508123755 10 165 0.0 0.0 0.00 0.00 0.00 52 1016.4
20260508123252 10 162 0.0 0.0 0.00 0.00 0.00 55 1016.1
20260508122748 9 151 0.0 0.0 0.00 0.00 0.00 57 1016.1
20260508122245 8 166 0.0 0.0 0.00 0.00 0.00 60 1016.1
20260508121743 8 163 0.0 0.0 0.00 0.00 0.00 62 1016.3
20260508121241 8 157 0.0 0.0 0.00 0.00 0.00 61 1016.0
20260508120738 8 166 0.0 0.0 0.00 0.00 0.00 62 1016.3
20260508120236 8 163 0.0 0.0 0.00 0.00 0.00 63 1016.4
20260508115733 8 173 0.0 1.6 0.00 0.00 0.00 63 1016.1
20260508115231 8 185 0.0 1.6 0.00 0.00 0.00 64 1016.1
20260508114727 8 170 0.0 0.0 0.00 0.00 0.00 65 1016.0
20260508114224 8 159 0.0 0.0 0.00 0.00 0.00 64 1016.0
20260508113720 8 163 0.0 0.0 0.00 0.00 0.00 63 1015.8
20260508113219 8 166 0.0 0.0 0.00 0.00 0.00 62 1015.9
20260508112715 9 153 0.0 0.0 0.00 0.00 0.00 61 1015.9
20260508112212 9 172 0.0 0.0 0.00 0.00 0.00 61 1015.9
20260508111709 9 150 0.0 0.0 0.00 0.00 0.00 62 1015.9
20260508111206 9 164 0.0 0.0 0.00 0.00 0.00 62 1015.8
20260508110703 9 164 0.0 0.0 0.00 0.00 0.00 60 1016.0
20260508110200 9 147 0.0 1.6 0.00 0.00 0.00 59 1015.7
20260508105700 9 130 1.6 1.6 0.00 0.00 0.00 58 1015.7
20260508105157 10 168 0.0 0.0 0.00 0.00 0.00 57 1015.7
20260508104655 9 132 1.6 3.2 0.00 0.00 0.00 58 1015.6
20260508104151 9 156 0.0 0.0 0.00 0.00 0.00 59 1015.7
20260508103649 9 153 0.0 1.6 0.00 0.00 0.00 60 1015.7
20260508103146 9 162 0.0 0.0 0.00 0.00 0.00 59 1015.7
20260508102643 10 160 0.0 0.0 0.00 0.00 0.00 58 1015.6
20260508102141 10 169 0.0 0.0 0.00 0.00 0.00 57 1015.6
20260508101638 10 173 0.0 1.6 0.00 0.00 0.00 56 1015.7
20260508101135 10 167 0.0 1.6 0.00 0.00 0.00 55 1015.6
20260508100633 10 146 0.0 3.2 0.00 0.00 0.00 57 1015.6
20260508100131 10 146 0.0 1.6 0.00 0.00 0.00 56 1015.5
20260508095627 10 119 0.0 4.8 0.00 0.00 0.00 56 1015.6
20260508095124 10 216 3.2 3.2 0.00 0.00 0.00 55 1015.5
20260508094621 10 174 1.6 1.6 0.00 0.00 0.00 56 1015.5
20260508094117 10 143 1.6 1.6 0.00 0.00 0.00 57 1015.6
20260508093615 10 178 0.0 1.6 0.00 0.00 0.00 56 1015.5
20260508093113 11 145 1.6 3.2 0.00 0.00 0.00 54 1015.6
20260508092609 11 184 1.6 3.2 0.00 0.00 0.00 54 1015.5
20260508092108 11 153 0.0 0.0 0.00 0.00 0.00 54 1015.5
20260508091605 11 218 1.6 1.6 0.00 0.00 0.00 55 1015.6
20260508091101 10 101 3.2 4.8 0.00 0.00 0.00 56 1015.7
20260508090600 10 115 3.2 4.8 0.00 0.00 0.00 60 1015.6
20260508090056 10 205 3.2 3.2 0.00 0.00 0.00 61 1015.6
20260508085552 10 140 1.6 1.6 0.00 0.00 0.00 61 1015.5
20260508085050 10 160 0.0 1.6 0.00 0.00 0.00 61 1015.6
20260508084547 10 175 1.6 1.6 0.00 0.00 0.00 62 1015.6
20260508084044 10 161 0.0 1.6 0.00 0.00 0.00 63 1015.7
20260508083541 10 167 0.0 0.0 0.00 0.00 0.00 63 1015.7
20260508083038 10 168 0.0 1.6 0.00 0.00 0.00 63 1015.8
20260508082534 10 165 0.0 1.6 0.00 0.00 0.00 64 1015.7
20260508082031 10 176 0.0 1.6 0.00 0.00 0.00 64 1015.6
20260508081529 10 176 0.0 0.0 0.00 0.00 0.00 63 1015.6
20260508081024 10 175 0.0 0.0 0.00 0.00 0.00 62 1015.6
20260508080522 10 172 0.0 0.0 0.00 0.00 0.00 62 1015.6
20260508080020 10 169 0.0 0.0 0.00 0.00 0.00 61 1015.5
20260508075516 11 169 0.0 0.0 0.00 0.00 0.00 61 1015.7
20260508075014 11 175 0.0 1.6 0.00 0.00 0.00 60 1015.6
20260508074511 11 176 0.0 3.2 0.00 0.00 0.00 60 1015.6
20260508074008 11 175 0.0 0.0 0.00 0.00 0.00 60 1015.5
20260508073505 11 179 0.0 1.6 0.00 0.00 0.00 59 1015.5
20260508073003 11 167 0.0 0.0 0.00 0.00 0.00 59 1015.2
20260508072458 11 167 0.0 0.0 0.00 0.00 0.00 58 1015.3
20260508071955 11 210 1.6 3.2 0.00 0.00 0.00 58 1015.5
20260508071454 11 180 0.0 0.0 0.00 0.00 0.00 57 1015.5
20260508070951 11 159 0.0 0.0 0.00 0.00 0.00 56 1015.3
20260508070449 12 161 0.0 0.0 0.00 0.00 0.00 55 1015.6
20260508065946 12 148 0.0 0.0 0.00 0.00 0.00 55 1015.6
20260508065444 12 172 0.0 1.6 0.00 0.00 0.00 54 1015.3
20260508064942 12 135 0.0 1.6 0.00 0.00 0.00 53 1015.3
20260508064439 12 168 0.0 0.0 0.00 0.00 0.00 53 1015.6
20260508063937 12 162 0.0 0.0 0.00 0.00 0.00 53 1015.3
20260508063434 12 162 0.0 0.0 0.00 0.00 0.00 52 1015.3
20260508062932 13 166 0.0 0.0 0.00 0.00 0.00 51 1015.3
20260508062429 13 174 0.0 0.0 0.00 0.00 0.00 50 1015.2
20260508061926 13 113 1.6 1.6 0.00 0.00 0.00 49 1015.1
20260508061424 14 138 0.0 1.6 0.00 0.00 0.00 48 1015.3
20260508060919 14 123 1.6 1.6 0.00 0.00 0.00 47 1015.2
20260508060417 14 155 0.0 0.0 0.00 0.00 0.00 45 1015.1
20260508055913 15 118 0.0 1.6 0.00 0.00 0.00 45 1015.1
20260508055410 15 173 0.0 0.0 0.00 0.00 0.00 44 1015.2
20260508054906 15 171 0.0 0.0 0.00 0.00 0.00 43 1015.1
20260508054404 16 171 0.0 0.0 0.00 0.00 0.00 41 1015.1
20260508053901 16 174 0.0 0.0 0.00 0.00 0.00 40 1015.2
20260508053358 16 171 0.0 1.6 0.00 0.00 0.00 39 1015.0
20260508052855 16 190 3.2 3.2 0.00 0.00 0.00 39 1015.0
20260508052353 16 194 1.6 1.6 0.00 0.00 0.00 39 1015.1
20260508051849 16 211 1.6 1.6 0.00 0.00 0.00 40 1015.0
20260508051344 16 172 0.0 0.0 0.00 0.00 0.00 40 1014.9
20260508050841 16 178 1.6 1.6 0.00 0.00 0.00 40 1015.0
20260508050338 16 164 0.0 1.6 0.00 0.00 0.00 40 1015.0
20260508045833 17 177 0.0 4.8 0.00 0.00 0.00 39 1015.1
20260508045331 17 181 1.6 3.2 0.00 0.00 0.00 38 1015.0
20260508044829 17 277 4.8 4.8 0.00 0.00 0.00 38 1015.1
20260508044325 17 184 3.2 4.8 0.00 0.00 0.00 37 1015.0
20260508043821 17 248 6.4 6.4 0.00 0.00 0.00 38 1015.0
20260508043319 17 165 0.0 3.2 0.00 0.00 0.00 38 1014.8
20260508042815 17 209 0.0 1.6 0.00 0.00 0.00 37 1015.0
20260508042313 17 261 4.8 4.8 0.00 0.00 0.00 37 1014.9
20260508041810 17 181 1.6 4.8 0.00 0.00 0.00 37 1014.9
20260508041306 17 179 1.6 3.2 0.00 0.00 0.00 38 1014.9
20260508040802 17 197 1.6 1.6 0.00 0.00 0.00 38 1014.7
20260508040300 17 192 0.0 3.2 0.00 0.00 0.00 38 1014.5
20260508035757 17 254 3.2 4.8 0.00 0.00 0.00 37 1014.7
20260508035255 17 208 3.2 4.8 0.00 0.00 0.00 37 1014.7
20260508034751 17 223 4.8 4.8 0.00 0.00 0.00 38 1014.5
20260508034248 17 216 1.6 4.8 0.00 0.00 0.00 38 1014.5
20260508033745 17 217 3.2 4.8 0.00 0.00 0.00 38 1014.5
20260508033244 17 209 3.2 3.2 0.00 0.00 0.00 39 1014.5
20260508032741 17 188 1.6 3.2 0.00 0.00 0.00 39 1014.3
20260508032238 17 182 1.6 4.8 0.00 0.00 0.00 41 1014.5
20260508031735 17 168 0.0 1.6 0.00 0.00 0.00 42 1014.3
20260508031231 17 175 0.0 1.6 0.00 0.00 0.00 41 1014.2
20260508030727 17 173 0.0 1.6 0.00 0.00 0.00 41 1014.2
20260508030225 17 161 0.0 3.2 0.00 0.00 0.00 41 1014.2
20260508025721 18 158 0.0 0.0 0.00 0.00 0.00 40 1014.2
20260508025219 18 170 0.0 1.6 0.00 0.00 0.00 38 1014.0
20260508024714 19 176 0.0 0.0 0.00 0.00 0.00 36 1014.0
20260508024212 20 166 0.0 0.0 0.00 0.00 0.00 36 1014.0
20260508023708 20 158 0.0 0.0 0.00 0.00 0.00 33 1014.0
20260508023206 20 159 0.0 0.0 0.00 0.00 0.00 33 1014.0
20260508022701 20 159 0.0 0.0 0.00 0.00 0.00 32 1013.9
20260508022158 21 163 0.0 0.0 0.00 0.00 0.00 32 1014.0
20260508021654 21 161 0.0 0.0 0.00 0.00 0.00 31 1013.9
20260508021150 22 168 0.0 1.6 0.00 0.00 0.00 30 1014.0
20260508020648 22 162 0.0 0.0 0.00 0.00 0.00 29 1013.9
20260508020145 22 145 0.0 1.6 0.00 0.00 0.00 29 1013.8
20260508015642 22 141 1.6 1.6 0.00 0.00 0.00 28 1013.9
20260508015139 22 139 0.0 1.6 0.00 0.00 0.00 27 1013.9
20260508014636 23 129 3.2 3.2 0.00 0.00 0.00 27 1014.1
20260508014132 23 157 0.0 1.6 0.00 0.00 0.00 27 1013.8
20260508013628 23 163 0.0 3.2 0.00 0.00 0.00 26 1013.9
20260508013125 23 169 0.0 1.6 0.00 0.00 0.00 27 1014.0
20260508012623 23 165 0.0 3.2 0.00 0.00 0.00 27 1013.9
20260508012120 23 157 0.0 1.6 0.00 0.00 0.00 26 1013.8
20260508011618 23 156 1.6 3.2 0.00 0.00 0.00 27 1013.9
20260508011115 23 109 1.6 3.2 0.00 0.00 0.00 27 1014.0
20260508010612 23 160 4.8 6.4 0.00 0.00 0.00 27 1014.0
20260508010110 23 87 4.8 6.4 0.00 0.00 0.00 26 1014.1
20260508005606 23 125 1.6 4.8 0.00 0.00 0.00 27 1014.0
20260508005102 23 145 1.6 4.8 0.00 0.00 0.00 27 1014.2
20260508004558 23 113 1.6 4.8 0.00 0.00 0.00 26 1014.2
20260508004055 23 157 1.6 3.2 0.00 0.00 0.00 27 1013.9
20260508003552 23 145 3.2 3.2 0.00 0.00 0.00 27 1014.1
20260508003050 23 114 1.6 11.3 0.00 0.00 0.00 27 1014.0
20260508002545 23 90 4.8 6.4 0.00 0.00 0.00 27 1014.0
20260508002043 23 103 6.4 6.4 0.00 0.00 0.00 26 1014.1
20260508001538 23 149 0.0 6.4 0.00 0.00 0.00 28 1013.9
20260508001035 23 127 1.6 3.2 0.00 0.00 0.00 27 1013.8
20260508000531 23 91 8.0 9.7 0.00 0.00 0.00 25 1013.9
20260508000029 23 115 4.8 6.4 0.00 0.00 0.00 27 1014.0
20260507235525 23 91 3.2 6.4 0.00 0.00 0.00 27 1013.9
20260507235023 23 153 1.6 4.8 0.00 0.00 0.00 27 1014.2
20260507234519 23 104 3.2 9.7 0.00 0.00 0.00 27 1014.4
20260507234015 23 106 9.7 12.9 0.00 0.00 0.00 27 1014.4
20260507233512 23 128 3.2 4.8 0.00 0.00 0.00 26 1014.5
20260507233011 23 91 6.4 9.7 0.00 0.00 0.00 26 1014.7
20260507232507 23 79 6.4 9.7 0.00 0.00 0.00 27 1014.7
20260507232004 23 111 3.2 4.8 0.00 0.00 0.00 27 1014.8
20260507231500 23 88 3.2 4.8 0.00 0.00 0.00 27 1014.8
20260507230958 23 89 3.2 9.7 0.00 0.00 0.00 28 1014.9
20260507230454 23 97 4.8 6.4 0.00 0.00 0.00 27 1014.7
20260507225949 23 110 8.0 9.7 0.00 0.00 0.00 27 1014.7
20260507225446 23 86 3.2 6.4 0.00 0.00 0.00 28 1014.7
20260507224942 23 86 6.4 11.3 0.00 0.00 0.00 26 1015.1
20260507224438 22 165 6.4 11.3 0.00 0.00 0.00 28 1015.3
20260507223935 22 97 4.8 4.8 0.00 0.00 0.00 30 1015.5
20260507223431 22 93 1.6 3.2 0.00 0.00 0.00 30 1015.5
20260507222928 23 87 4.8 9.7 0.00 0.00 0.00 30 1015.5
20260507222425 23 115 3.2 9.7 0.00 0.00 0.00 27 1015.6
20260507221922 23 139 3.2 4.8 0.00 0.00 0.00 29 1015.7
20260507221418 22 124 1.6 3.2 0.00 0.00 0.00 28 1015.6
20260507220914 21 169 0.0 1.6 0.00 0.00 0.00 28 1015.9
20260507220412 21 139 0.0 1.6 0.00 0.00 0.00 28 1015.9
20260507215908 21 126 3.2 4.8 0.00 0.00 0.00 27 1016.0
20260507215406 21 138 0.0 4.8 0.00 0.00 0.00 27 1016.3
20260507214903 21 87 4.8 4.8 0.00 0.00 0.00 28 1016.0
20260507214400 21 96 1.6 4.8 0.00 0.00 0.00 27 1016.1